,,,PA_Meas_PMT16A,,PR_Meas_QMR101_102,,RH_Meas_QMH101,,SR_Meas_QMS101,,TA_Meas_QMH101,,GenWind,,GenWind,
date,time,status,PA,status,PR,status,RH,status,SR,status,TA,status,DirAvg,status,SpdAvg,
2009-02-27, 00:00:04,VALID,1002.71,VALID,0,VALID,93.4156,VALID,0,VALID,24.4628,VALID,75,VALID,0.20625,
2009-02-27, 00:01:04,VALID,1002.69,VALID,0,VALID,93.4309,VALID,0,VALID,24.4628,VALID,75,VALID,0.185547,
2009-02-27, 00:02:04,VALID,1002.68,VALID,0,VALID,93.4233,VALID,0,VALID,24.4433,VALID,75,VALID,0.136328,
2009-02-27, 00:03:04,VALID,1002.67,VALID,0,VALID,93.4385,VALID,0,VALID,24.422,VALID,75,VALID,0,
2009-02-27, 00:04:04,VALID,1002.67,VALID,0,VALID,93.4614,VALID,0,VALID,24.4628,VALID,75,VALID,0,
2009-02-27, 00:05:04,VALID,1002.62,VALID,0,VALID,93.469,VALID,0,VALID,24.422,VALID,75,VALID,0,
2009-02-27, 00:06:04,VALID,1002.59,VALID,0,VALID,93.4538,VALID,0,VALID,24.4433,VALID,75,VALID,0,
2009-02-27, 00:07:04,VALID,1002.54,VALID,0,VALID,93.4309,VALID,0,VALID,24.422,VALID,75,VALID,0,
2009-02-27, 00:08:04,VALID,1002.53,VALID,0,VALID,93.4309,VALID,0,VALID,24.4433,VALID,75,VALID,0,
2009-02-27, 00:09:04,VALID,1002.49,VALID,0,VALID,93.4385,VALID,0,VALID,24.4451,VALID,75,VALID,0,
2009-02-27, 00:10:04,VALID,1002.48,VALID,0,VALID,93.469,VALID,0,VALID,24.4451,VALID,75,VALID,0,
2009-02-27, 00:11:04,VALID,1002.46,VALID,0,VALID,93.4919,VALID,0,VALID,24.4238,VALID,75,VALID,0.0523437,
2009-02-27, 00:12:04,VALID,1002.42,VALID,0,VALID,93.4843,VALID,0.100563,VALID,24.4025,VALID,75,VALID,0.0648438,
2009-02-27, 00:13:04,VALID,1002.45,VALID,0,VALID,93.5072,VALID,0,VALID,24.4025,VALID,75,VALID,0,
2009-02-27, 00:14:04,VALID,1002.42,VALID,0,VALID,93.5224,VALID,0.100563,VALID,24.4238,VALID,75,VALID,0,
2009-02-27, 00:15:04,VALID,1002.42,VALID,0,VALID,93.5301,VALID,0,VALID,24.422,VALID,75,VALID,0,
2009-02-27, 00:16:04,VALID,1002.41,VALID,0,VALID,93.4843,VALID,0,VALID,24.4433,VALID,75,VALID,0,
2009-02-27, 00:17:04,VALID,1002.39,VALID,0,VALID,93.5072,VALID,0,VALID,24.422,VALID,75,VALID,0,
2009-02-27, 00:18:04,VALID,1002.36,VALID,0,VALID,93.4996,VALID,0,VALID,24.422,VALID,75,VALID,0,
2009-02-27, 00:19:04,VALID,1002.35,VALID,0,VALID,93.4614,VALID,0,VALID,24.4025,VALID,75,VALID,0,
2009-02-27, 00:20:04,VALID,1002.32,VALID,0,VALID,93.4614,VALID,0,VALID,24.4238,VALID,75,VALID,0,
2009-02-27, 00:21:04,VALID,1002.29,VALID,0,VALID,93.4538,VALID,0,VALID,24.4257,VALID,75,VALID,0,
2009-02-27, 00:22:04,VALID,1002.28,VALID,0,VALID,93.4538,VALID,0.100563,VALID,24.4025,VALID,75,VALID,0,
2009-02-27, 00:23:04,VALID,1002.28,VALID,0,VALID,93.4538,VALID,0,VALID,24.4043,VALID,75,VALID,0,
2009-02-27, 00:24:04,VALID,1002.26,VALID,0,VALID,93.4919,VALID,0,VALID,24.4043,VALID,75,VALID,0,
2009-02-27, 00:25:04,VALID,1002.25,VALID,0,VALID,93.4919,VALID,0,VALID,24.4238,VALID,75,VALID,0,
2009-02-27, 00:26:04,VALID,1002.26,VALID,0,VALID,93.5224,VALID,0,VALID,24.383,VALID,75,VALID,0,
2009-02-27, 00:27:04,VALID,1002.25,VALID,0,VALID,93.5224,VALID,0,VALID,24.4043,VALID,75,VALID,0,
2009-02-27, 00:28:04,VALID,1002.27,VALID,0,VALID,93.553,VALID,0,VALID,24.383,VALID,75,VALID,0,
2009-02-27, 00:29:04,VALID,1002.28,VALID,0,VALID,93.5835,VALID,0,VALID,24.4238,VALID,75,VALID,0,
2009-02-27, 00:30:04,VALID,1002.32,VALID,0,VALID,93.5758,VALID,0,VALID,24.4238,VALID,75,VALID,0,
2009-02-27, 00:31:04,VALID,1002.34,VALID,0,VALID,93.5453,VALID,0,VALID,24.4043,VALID,75,VALID,0,
2009-02-27, 00:32:04,VALID,1002.37,VALID,0,VALID,93.553,VALID,0,VALID,24.3849,VALID,75,VALID,0,
2009-02-27, 00:33:04,VALID,1002.4,VALID,0,VALID,93.5758,VALID,0,VALID,24.3636,VALID,75,VALID,0,
2009-02-27, 00:34:04,VALID,1002.43,VALID,0,VALID,93.5987,VALID,0,VALID,24.3654,VALID,75,VALID,0,
2009-02-27, 00:35:04,VALID,1002.41,VALID,0,VALID,93.6445,VALID,0,VALID,24.3654,VALID,75,VALID,0,
2009-02-27, 00:36:04,VALID,1002.44,VALID,0,VALID,93.6826,VALID,0,VALID,24.3441,VALID,75,VALID,0,
2009-02-27, 00:37:04,VALID,1002.44,VALID,0,VALID,93.7437,VALID,0,VALID,24.3654,VALID,73,VALID,0,
2009-02-27, 00:38:04,VALID,1002.41,VALID,0,VALID,93.7666,VALID,0,VALID,24.3636,VALID,19,VALID,0,
2009-02-27, 00:39:04,VALID,1002.43,VALID,0,VALID,93.7437,VALID,0,VALID,24.3849,VALID,19,VALID,0,
2009-02-27, 00:40:04,VALID,1002.38,VALID,0,VALID,93.7361,VALID,0.100563,VALID,24.383,VALID,19,VALID,0,
2009-02-27, 00:41:04,VALID,1002.38,VALID,0,VALID,93.7513,VALID,0,VALID,24.3422,VALID,19,VALID,0,
2009-02-27, 00:42:04,VALID,1002.36,VALID,0,VALID,93.7513,VALID,0.100563,VALID,24.4062,VALID,19,VALID,0,
2009-02-27, 00:43:04,VALID,1002.34,VALID,0,VALID,93.7818,VALID,0,VALID,24.3654,VALID,19,VALID,0,
2009-02-27, 00:44:04,VALID,1002.33,VALID,0,VALID,93.8352,VALID,0,VALID,24.3636,VALID,23,VALID,0,
2009-02-27, 00:45:04,VALID,1002.32,VALID,0,VALID,93.8429,VALID,0,VALID,24.383,VALID,39,VALID,0.262109,
2009-02-27, 00:46:04,VALID,1002.29,VALID,0,VALID,93.8505,VALID,0,VALID,24.383,VALID,39,VALID,0.287891,
2009-02-27, 00:47:04,VALID,1002.3,VALID,0,VALID,93.8505,VALID,0,VALID,24.4043,VALID,39,VALID,0.286719,
2009-02-27, 00:48:04,VALID,1002.29,VALID,0,VALID,93.9191,VALID,0,VALID,24.383,VALID,39,VALID,0.0933594,
2009-02-27, 00:49:04,VALID,1002.27,VALID,0,VALID,93.942,VALID,0,VALID,24.4238,VALID,39,VALID,0.118359,
2009-02-27, 00:50:04,VALID,1002.28,VALID,0,VALID,93.9573,VALID,0,VALID,24.422,VALID,25,VALID,0.450781,
2009-02-27, 00:51:04,VALID,1002.27,VALID,0,VALID,93.942,VALID,0,VALID,24.4609,VALID,24,VALID,0,
2009-02-27, 00:52:04,VALID,1002.25,VALID,0,VALID,93.8886,VALID,0,VALID,24.4822,VALID,24,VALID,0,
2009-02-27, 00:53:04,VALID,1002.23,VALID,0,VALID,93.9115,VALID,0,VALID,24.4822,VALID,24,VALID,0.00351562,
2009-02-27, 00:54:04,VALID,1002.2,VALID,0,VALID,93.9039,VALID,0,VALID,24.4822,VALID,24,VALID,0.0832031,
2009-02-27, 00:55:04,VALID,1002.21,VALID,0,VALID,93.8505,VALID,0,VALID,24.5017,VALID,24,VALID,0.273047,
2009-02-27, 00:56:04,VALID,1002.16,VALID,0,VALID,93.8352,VALID,0,VALID,24.4804,VALID,22,VALID,0.110547,
2009-02-27, 00:57:04,VALID,1002.15,VALID,0,VALID,93.7818,VALID,0,VALID,24.5193,VALID,11,VALID,0,
2009-02-27, 00:58:04,VALID,1002.13,VALID,0,VALID,93.7284,VALID,0,VALID,24.5582,VALID,10,VALID,0,
2009-02-27, 00:59:04,VALID,1002.12,VALID,0,VALID,93.6445,VALID,0,VALID,24.6185,VALID,1,VALID,0.221484,
2009-02-27, 01:00:04,VALID,1002.11,VALID,0,VALID,93.4614,VALID,0,VALID,24.6574,VALID,346,VALID,0.457031,
2009-02-27, 01:01:04,VALID,1002.11,VALID,0,VALID,93.3012,VALID,0,VALID,24.675,VALID,298,VALID,0.712109,
2009-02-27, 01:02:04,VALID,1002.13,VALID,0,VALID,93.141,VALID,0.100563,VALID,24.7353,VALID,279,VALID,0.0742188,
2009-02-27, 01:03:04,VALID,1002.11,VALID,0,VALID,92.8969,VALID,0,VALID,24.7548,VALID,343,VALID,0.582422,
2009-02-27, 01:04:04,VALID,1002.12,VALID,0,VALID,92.6985,VALID,0,VALID,24.7724,VALID,347,VALID,0.508984,
2009-02-27, 01:05:04,VALID,1002.11,VALID,0,VALID,92.546,VALID,0,VALID,24.8113,VALID,6,VALID,0.651953,
2009-02-27, 01:06:04,VALID,1002.14,VALID,0,VALID,92.4086,VALID,0,VALID,24.8113,VALID,6,VALID,0.462891,
2009-02-27, 01:07:04,VALID,1002.17,VALID,0,VALID,92.3171,VALID,0.100563,VALID,24.8522,VALID,6,VALID,0.35,
2009-02-27, 01:08:04,VALID,1002.2,VALID,0,VALID,92.2332,VALID,0,VALID,24.8327,VALID,6,VALID,0.422656,
2009-02-27, 01:09:04,VALID,1002.21,VALID,0,VALID,92.0958,VALID,0,VALID,24.8327,VALID,37,VALID,0.715625,
2009-02-27, 01:10:04,VALID,1002.22,VALID,0,VALID,92.1035,VALID,0,VALID,24.8327,VALID,37,VALID,0.279297,
2009-02-27, 01:11:04,VALID,1002.25,VALID,0,VALID,92.0882,VALID,0,VALID,24.8327,VALID,37,VALID,0.223047,
2009-02-27, 01:12:04,VALID,1002.23,VALID,0,VALID,92.073,VALID,0,VALID,24.8113,VALID,37,VALID,0,
2009-02-27, 01:13:04,VALID,1002.19,VALID,0,VALID,92.0348,VALID,0,VALID,24.8327,VALID,35,VALID,0.217187,
2009-02-27, 01:14:04,VALID,1002.16,VALID,0,VALID,92.0806,VALID,0.100563,VALID,24.8132,VALID,33,VALID,0,
2009-02-27, 01:15:04,VALID,1002.08,VALID,0,VALID,91.9738,VALID,0,VALID,24.8113,VALID,76,VALID,0.533203,
2009-02-27, 01:16:04,VALID,1002.06,VALID,0,VALID,91.9051,VALID,0.100563,VALID,24.8308,VALID,76,VALID,0.127344,
2009-02-27, 01:17:04,VALID,1002.05,VALID,0,VALID,91.7983,VALID,0.100563,VALID,24.8716,VALID,51,VALID,0.220313,
2009-02-27, 01:18:04,VALID,1002,VALID,0,VALID,91.6457,VALID,0,VALID,24.8911,VALID,30,VALID,0.294922,
2009-02-27, 01:19:04,VALID,1001.97,VALID,0,VALID,91.4932,VALID,0,VALID,24.93,VALID,96,VALID,0.322656,
2009-02-27, 01:20:04,VALID,1001.97,VALID,0,VALID,91.2719,VALID,0,VALID,24.9476,VALID,104,VALID,0.230859,
2009-02-27, 01:21:04,VALID,1001.96,VALID,0,VALID,91.1193,VALID,0,VALID,25.0079,VALID,104,VALID,0.028125,
2009-02-27, 01:22:04,VALID,1001.92,VALID,0,VALID,90.9668,VALID,0,VALID,25.0274,VALID,20,VALID,0.205078,
2009-02-27, 01:23:04,VALID,1001.94,VALID,0,VALID,90.8447,VALID,0,VALID,25.0469,VALID,360,VALID,0.273828,
2009-02-27, 01:24:04,VALID,1001.9,VALID,0,VALID,90.7074,VALID,0,VALID,25.0858,VALID,360,VALID,0.153516,
2009-02-27, 01:25:04,VALID,1001.93,VALID,0,VALID,90.6616,VALID,0,VALID,25.0839,VALID,349,VALID,0.355469,
2009-02-27, 01:26:04,VALID,1001.93,VALID,0,VALID,90.6006,VALID,0,VALID,25.1248,VALID,349,VALID,0.298438,
2009-02-27, 01:27:04,VALID,1001.91,VALID,0,VALID,90.593,VALID,0,VALID,25.1034,VALID,349,VALID,0.272266,
2009-02-27, 01:28:04,VALID,1001.95,VALID,0,VALID,90.654,VALID,0,VALID,25.1034,VALID,349,VALID,0.403125,
2009-02-27, 01:29:04,VALID,1001.94,VALID,0,VALID,90.6921,VALID,0,VALID,25.1248,VALID,349,VALID,0.149609,
2009-02-27, 01:30:04,VALID,1001.91,VALID,0,VALID,90.7379,VALID,0,VALID,25.1461,VALID,32,VALID,0.825,
2009-02-27, 01:31:04,VALID,1001.92,VALID,0,VALID,90.86,VALID,0,VALID,25.1248,VALID,11,VALID,1.64961,
2009-02-27, 01:32:04,VALID,1001.9,VALID,0,VALID,90.8676,VALID,0.100563,VALID,25.1637,VALID,33,VALID,1.17734,
2009-02-27, 01:33:04,VALID,1001.9,VALID,0,VALID,90.8142,VALID,0,VALID,25.2046,VALID,16,VALID,0.595312,
2009-02-27, 01:34:04,VALID,1001.85,VALID,0,VALID,90.8066,VALID,0,VALID,25.1832,VALID,2,VALID,0.59375,
2009-02-27, 01:35:04,VALID,1001.84,VALID,0,VALID,90.7684,VALID,0,VALID,25.1832,VALID,40,VALID,1.12461,
2009-02-27, 01:36:04,VALID,1001.82,VALID,0,VALID,90.6998,VALID,0,VALID,25.1832,VALID,31,VALID,1.31719,
2009-02-27, 01:37:04,VALID,1001.8,VALID,0,VALID,90.6769,VALID,0,VALID,25.1832,VALID,15,VALID,1.33633,
2009-02-27, 01:38:04,VALID,1001.78,VALID,0,VALID,90.6769,VALID,0,VALID,25.2027,VALID,33,VALID,0.910156,
2009-02-27, 01:39:04,VALID,1001.78,VALID,0,VALID,90.6387,VALID,0,VALID,25.1832,VALID,25,VALID,1.18086,
2009-02-27, 01:40:04,VALID,1001.77,VALID,0,VALID,90.6158,VALID,0,VALID,25.1832,VALID,41,VALID,0.641797,
2009-02-27, 01:41:04,VALID,1001.79,VALID,0,VALID,90.654,VALID,0,VALID,25.1832,VALID,27,VALID,0.973437,
2009-02-27, 01:42:04,VALID,1001.78,VALID,0,VALID,90.6921,VALID,0,VALID,25.1637,VALID,18,VALID,0.967578,
2009-02-27, 01:43:04,VALID,1001.81,VALID,0,VALID,90.7226,VALID,0,VALID,25.1851,VALID,33,VALID,1.04297,
2009-02-27, 01:44:04,VALID,1001.79,VALID,0,VALID,90.6921,VALID,0,VALID,25.1637,VALID,23,VALID,0.942187,
2009-02-27, 01:45:04,VALID,1001.78,VALID,0,VALID,90.6616,VALID,0,VALID,25.1637,VALID,33,VALID,0.849609,
2009-02-27, 01:46:04,VALID,1001.77,VALID,0,VALID,90.6311,VALID,0,VALID,25.1637,VALID,14,VALID,0.569922,
2009-02-27, 01:47:04,VALID,1001.73,VALID,0,VALID,90.6311,VALID,0,VALID,25.1637,VALID,29,VALID,1.09414,
2009-02-27, 01:48:04,VALID,1001.7,VALID,0,VALID,90.654,VALID,0,VALID,25.1442,VALID,4,VALID,1.31406,
2009-02-27, 01:49:04,VALID,1001.7,VALID,0,VALID,90.6311,VALID,0,VALID,25.1637,VALID,35,VALID,1.11641,
2009-02-27, 01:50:04,VALID,1001.66,VALID,0,VALID,90.6311,VALID,0,VALID,25.1442,VALID,24,VALID,0.875391,
2009-02-27, 01:51:04,VALID,1001.67,VALID,0,VALID,90.6387,VALID,0,VALID,25.1442,VALID,2,VALID,1.32422,
2009-02-27, 01:52:04,VALID,1001.66,VALID,0,VALID,90.6235,VALID,0.100563,VALID,25.1637,VALID,5,VALID,0.633594,
2009-02-27, 01:53:04,VALID,1001.67,VALID,0,VALID,90.593,VALID,0,VALID,25.1442,VALID,100,VALID,0.631641,
2009-02-27, 01:54:04,VALID,1001.66,VALID,0,VALID,90.6235,VALID,0,VALID,25.1229,VALID,24,VALID,0.775391,
2009-02-27, 01:55:04,VALID,1001.65,VALID,0,VALID,90.6387,VALID,0,VALID,25.1248,VALID,24,VALID,0.287891,
2009-02-27, 01:56:04,VALID,1001.65,VALID,0,VALID,90.6921,VALID,0,VALID,25.1248,VALID,33,VALID,0.558594,
2009-02-27, 01:57:04,VALID,1001.63,VALID,0,VALID,90.7455,VALID,0,VALID,25.0858,VALID,38,VALID,0.451172,
2009-02-27, 01:58:04,VALID,1001.63,VALID,0,VALID,90.7684,VALID,0.100563,VALID,25.0644,VALID,14,VALID,1.01172,
2009-02-27, 01:59:04,VALID,1001.64,VALID,0,VALID,90.8066,VALID,0,VALID,25.0663,VALID,64,VALID,0.444531,
2009-02-27, 02:00:04,VALID,1001.62,VALID,0,VALID,90.7989,VALID,0,VALID,25.0877,VALID,19,VALID,0.9125,
2009-02-27, 02:01:04,VALID,1001.62,VALID,0,VALID,90.7455,VALID,0,VALID,25.0644,VALID,31,VALID,0.944922,
2009-02-27, 02:02:04,VALID,1001.62,VALID,0,VALID,90.6769,VALID,0,VALID,25.1053,VALID,24,VALID,0.868359,
2009-02-27, 02:03:04,VALID,1001.61,VALID,0,VALID,90.6769,VALID,0,VALID,25.1053,VALID,351,VALID,0.439844,
2009-02-27, 02:04:04,VALID,1001.61,VALID,0,VALID,90.6998,VALID,0,VALID,25.1053,VALID,351,VALID,0.201953,
2009-02-27, 02:05:04,VALID,1001.62,VALID,0,VALID,90.715,VALID,0,VALID,25.1072,VALID,351,VALID,0.0976563,
2009-02-27, 02:06:04,VALID,1001.64,VALID,0,VALID,90.7684,VALID,0,VALID,25.0877,VALID,351,VALID,0,
2009-02-27, 02:07:04,VALID,1001.63,VALID,0,VALID,90.7608,VALID,0,VALID,25.0469,VALID,351,VALID,0,
2009-02-27, 02:08:04,VALID,1001.6,VALID,0,VALID,90.7837,VALID,0,VALID,25.0274,VALID,351,VALID,0.171484,
2009-02-27, 02:09:04,VALID,1001.64,VALID,0,VALID,90.8218,VALID,0,VALID,25.0274,VALID,351,VALID,0.226172,
2009-02-27, 02:10:04,VALID,1001.63,VALID,0,VALID,90.8752,VALID,0,VALID,25.0488,VALID,351,VALID,0.164453,
2009-02-27, 02:11:04,VALID,1001.62,VALID,0,VALID,90.9057,VALID,0,VALID,25.0079,VALID,351,VALID,0.0597656,
2009-02-27, 02:12:04,VALID,1001.62,VALID,0,VALID,90.9439,VALID,0,VALID,24.9885,VALID,351,VALID,0.297266,
2009-02-27, 02:13:04,VALID,1001.62,VALID,0,VALID,90.9973,VALID,0,VALID,25.0098,VALID,357,VALID,0.469141,
2009-02-27, 02:14:04,VALID,1001.6,VALID,0,VALID,91.0431,VALID,0,VALID,24.9904,VALID,36,VALID,0.728906,
2009-02-27, 02:15:04,VALID,1001.61,VALID,0,VALID,91.0812,VALID,0,VALID,24.9885,VALID,32,VALID,0.582031,
2009-02-27, 02:16:04,VALID,1001.6,VALID,0,VALID,91.0431,VALID,0,VALID,24.9885,VALID,357,VALID,0.773047,
2009-02-27, 02:17:04,VALID,1001.59,VALID,0,VALID,90.8981,VALID,0,VALID,25.0469,VALID,16,VALID,1.14297,
2009-02-27, 02:18:04,VALID,1001.61,VALID,0,VALID,90.8142,VALID,0,VALID,25.0877,VALID,2,VALID,0.71875,
2009-02-27, 02:19:04,VALID,1001.6,VALID,0,VALID,90.7913,VALID,0,VALID,25.0858,VALID,18,VALID,0.338281,
2009-02-27, 02:20:04,VALID,1001.62,VALID,0,VALID,90.6311,VALID,0,VALID,25.1053,VALID,293,VALID,0.861719,
2009-02-27, 02:21:04,VALID,1001.64,VALID,0,VALID,90.6235,VALID,0,VALID,25.1461,VALID,21,VALID,0.875,
2009-02-27, 02:22:04,VALID,1001.65,VALID,0,VALID,90.5853,VALID,0,VALID,25.1034,VALID,45,VALID,1.00273,
2009-02-27, 02:23:04,VALID,1001.65,VALID,0,VALID,90.5777,VALID,0,VALID,25.1442,VALID,27,VALID,0.447266,
2009-02-27, 02:24:04,VALID,1001.68,VALID,0,VALID,90.5396,VALID,0,VALID,25.1229,VALID,9,VALID,0.877734,
2009-02-27, 02:25:04,VALID,1001.71,VALID,0,VALID,90.4556,VALID,0,VALID,25.1442,VALID,319,VALID,0.442578,
2009-02-27, 02:26:04,VALID,1001.71,VALID,0,VALID,90.4404,VALID,0,VALID,25.1442,VALID,53,VALID,0.654297,
2009-02-27, 02:27:04,VALID,1001.73,VALID,0,VALID,90.4938,VALID,0,VALID,25.1442,VALID,359,VALID,0.862109,
2009-02-27, 02:28:04,VALID,1001.74,VALID,0,VALID,90.5472,VALID,0,VALID,25.1442,VALID,16,VALID,0.785156,
2009-02-27, 02:29:04,VALID,1001.75,VALID,0,VALID,90.5701,VALID,0,VALID,25.1248,VALID,16,VALID,0.325781,
2009-02-27, 02:30:04,VALID,1001.76,VALID,0,VALID,90.7303,VALID,0,VALID,25.1053,VALID,21,VALID,0.162109,
2009-02-27, 02:31:04,VALID,1001.78,VALID,0,VALID,90.7989,VALID,0,VALID,25.1072,VALID,304,VALID,0.480469,
2009-02-27, 02:32:04,VALID,1001.77,VALID,0,VALID,90.921,VALID,0,VALID,25.0663,VALID,11,VALID,0.570313,
2009-02-27, 02:33:04,VALID,1001.74,VALID,0,VALID,90.9515,VALID,0,VALID,25.0469,VALID,22,VALID,0.798047,
2009-02-27, 02:34:04,VALID,1001.73,VALID,0,VALID,91.0583,VALID,0,VALID,25.0079,VALID,353,VALID,0.784375,
2009-02-27, 02:35:04,VALID,1001.73,VALID,0,VALID,91.188,VALID,0,VALID,25.0079,VALID,42,VALID,1.10039,
2009-02-27, 02:36:04,VALID,1001.71,VALID,0,VALID,91.2719,VALID,0,VALID,24.9885,VALID,8,VALID,0.841406,
2009-02-27, 02:37:04,VALID,1001.67,VALID,0,VALID,91.3711,VALID,0,VALID,24.9885,VALID,35,VALID,1.66719,
2009-02-27, 02:38:04,VALID,1001.7,VALID,0,VALID,91.4321,VALID,0,VALID,25.0079,VALID,13,VALID,1.53906,
2009-02-27, 02:39:04,VALID,1001.7,VALID,0,VALID,91.5466,VALID,0,VALID,24.9885,VALID,360,VALID,0.901953,
2009-02-27, 02:40:04,VALID,1001.72,VALID,0,VALID,91.5237,VALID,0,VALID,24.9885,VALID,9,VALID,1.34375,
2009-02-27, 02:41:04,VALID,1001.68,VALID,0,VALID,91.5618,VALID,0,VALID,24.9476,VALID,14,VALID,1.40664,
2009-02-27, 02:42:04,VALID,1001.68,VALID,0,VALID,91.5542,VALID,0,VALID,24.9709,VALID,31,VALID,1.38359,
2009-02-27, 02:43:04,VALID,1001.67,VALID,0,VALID,91.6076,VALID,0,VALID,24.9514,VALID,48,VALID,1.51406,
2009-02-27, 02:44:04,VALID,1001.65,VALID,0,VALID,91.6457,VALID,0,VALID,24.9319,VALID,31,VALID,2.26719,
2009-02-27, 02:45:04,VALID,1001.65,VALID,0,VALID,91.661,VALID,0,VALID,24.9106,VALID,26,VALID,1.43125,
2009-02-27, 02:46:04,VALID,1001.64,VALID,0,VALID,91.6991,VALID,0,VALID,24.9106,VALID,29,VALID,1.30273,
2009-02-27, 02:47:04,VALID,1001.6,VALID,0,VALID,91.7373,VALID,0,VALID,24.8911,VALID,16,VALID,1.51289,
2009-02-27, 02:48:04,VALID,1001.62,VALID,0,VALID,91.7983,VALID,0,VALID,24.8697,VALID,6,VALID,0.970703,
2009-02-27, 02:49:04,VALID,1001.62,VALID,0,VALID,91.8594,VALID,0,VALID,24.8522,VALID,34,VALID,1.4875,
2009-02-27, 02:50:04,VALID,1001.59,VALID,0,VALID,91.9204,VALID,0,VALID,24.8522,VALID,19,VALID,2.20469,
2009-02-27, 02:51:04,VALID,1001.58,VALID,0,VALID,91.8746,VALID,0.100563,VALID,24.8503,VALID,30,VALID,1.15352,
2009-02-27, 02:52:04,VALID,1001.59,VALID,0,VALID,91.8594,VALID,0,VALID,24.8503,VALID,360,VALID,0.677734,
2009-02-27, 02:53:04,VALID,1001.57,VALID,0,VALID,91.7678,VALID,0,VALID,24.8735,VALID,15,VALID,1.28984,
2009-02-27, 02:54:04,VALID,1001.61,VALID,0,VALID,91.7297,VALID,0,VALID,24.8308,VALID,3,VALID,1.97187,
2009-02-27, 02:55:04,VALID,1001.6,VALID,0,VALID,91.7373,VALID,0,VALID,24.8716,VALID,12,VALID,0.953516,
2009-02-27, 02:56:04,VALID,1001.63,VALID,0,VALID,91.6686,VALID,0,VALID,24.8716,VALID,354,VALID,1.13867,
2009-02-27, 02:57:04,VALID,1001.58,VALID,0,VALID,91.4779,VALID,0,VALID,24.8716,VALID,19,VALID,1.54062,
2009-02-27, 02:58:04,VALID,1001.56,VALID,0,VALID,91.4245,VALID,0,VALID,24.8892,VALID,347,VALID,1.16172,
2009-02-27, 02:59:04,VALID,1001.56,VALID,0,VALID,91.3635,VALID,0,VALID,24.9106,VALID,4,VALID,1.4293,
2009-02-27, 03:00:04,VALID,1001.57,VALID,0,VALID,91.3406,VALID,0,VALID,24.9106,VALID,7,VALID,1.61094,
2009-02-27, 03:01:04,VALID,1001.53,VALID,0,VALID,91.3101,VALID,0,VALID,24.9106,VALID,12,VALID,0.668359,
2009-02-27, 03:02:04,VALID,1001.57,VALID,0,VALID,91.2948,VALID,0,VALID,24.8892,VALID,10,VALID,1.80352,
2009-02-27, 03:03:04,VALID,1001.58,VALID,0,VALID,91.1117,VALID,0,VALID,24.893,VALID,17,VALID,2.48359,
2009-02-27, 03:04:04,VALID,1001.56,VALID,0,VALID,90.921,VALID,0,VALID,24.9125,VALID,22,VALID,1.9293,
2009-02-27, 03:05:04,VALID,1001.55,VALID,0,VALID,90.7837,VALID,0,VALID,24.93,VALID,6,VALID,2.09258,
2009-02-27, 03:06:04,VALID,1001.59,VALID,0,VALID,90.8676,VALID,0,VALID,24.9514,VALID,3,VALID,1.17656,
2009-02-27, 03:07:04,VALID,1001.6,VALID,0,VALID,90.7532,VALID,0,VALID,24.9106,VALID,10,VALID,1.74609,
2009-02-27, 03:08:04,VALID,1001.56,VALID,0,VALID,90.3946,VALID,0,VALID,24.9282,VALID,31,VALID,2.44102,
2009-02-27, 03:09:04,VALID,1001.6,VALID,0,VALID,90.4099,VALID,0,VALID,24.9671,VALID,17,VALID,1.30664,
2009-02-27, 03:10:04,VALID,1001.56,VALID,0,VALID,90.3488,VALID,0,VALID,24.969,VALID,349,VALID,1.41484,
2009-02-27, 03:11:04,VALID,1001.55,VALID,0,VALID,90.2573,VALID,0,VALID,24.9476,VALID,353,VALID,1.26953,
2009-02-27, 03:12:04,VALID,1001.56,VALID,0,VALID,90.2725,VALID,0,VALID,24.9495,VALID,4,VALID,1.16836,
2009-02-27, 03:13:04,VALID,1001.53,VALID,0,VALID,90.3259,VALID,0,VALID,24.9495,VALID,353,VALID,1.08594,
2009-02-27, 03:14:04,VALID,1001.52,VALID,0,VALID,90.3946,VALID,0,VALID,24.93,VALID,9,VALID,1.14805,
2009-02-27, 03:15:04,VALID,1001.51,VALID,0,VALID,90.448,VALID,0,VALID,24.8911,VALID,4,VALID,0.974609,
2009-02-27, 03:16:04,VALID,1001.5,VALID,0,VALID,90.5319,VALID,0,VALID,24.893,VALID,18,VALID,1.53477,
2009-02-27, 03:17:04,VALID,1001.49,VALID,0,VALID,90.4327,VALID,0,VALID,24.8308,VALID,21,VALID,2.07266,
2009-02-27, 03:18:04,VALID,1001.51,VALID,0,VALID,90.4862,VALID,0,VALID,24.8716,VALID,358,VALID,1.17266,
2009-02-27, 03:19:04,VALID,1001.47,VALID,0,VALID,90.4785,VALID,0,VALID,24.8522,VALID,355,VALID,1.36602,
2009-02-27, 03:20:04,VALID,1001.49,VALID,0,VALID,90.3107,VALID,0,VALID,24.8327,VALID,8,VALID,2.30273,
2009-02-27, 03:21:04,VALID,1001.44,VALID,0,VALID,90.1276,VALID,0,VALID,24.8503,VALID,359,VALID,1.58281,
2009-02-27, 03:22:04,VALID,1001.43,VALID,0,VALID,90.0284,VALID,0,VALID,24.8716,VALID,7,VALID,1.81953,
2009-02-27, 03:23:04,VALID,1001.4,VALID,0,VALID,89.9445,VALID,0,VALID,24.8716,VALID,4,VALID,1.48984,
2009-02-27, 03:24:04,VALID,1001.4,VALID,0,VALID,89.914,VALID,0,VALID,24.8522,VALID,11,VALID,1.5,
2009-02-27, 03:25:04,VALID,1001.36,VALID,0,VALID,89.708,VALID,0,VALID,24.8716,VALID,11,VALID,1.53437,
2009-02-27, 03:26:04,VALID,1001.37,VALID,0,VALID,89.7614,VALID,0,VALID,24.8716,VALID,354,VALID,0.760938,
2009-02-27, 03:27:04,VALID,1001.42,VALID,0,VALID,89.7843,VALID,0.100563,VALID,24.8716,VALID,3,VALID,1.24414,
2009-02-27, 03:28:04,VALID,1001.39,VALID,0,VALID,89.8835,VALID,0,VALID,24.8308,VALID,354,VALID,0.932031,
2009-02-27, 03:29:04,VALID,1001.4,VALID,0,VALID,90.0589,VALID,0,VALID,24.8327,VALID,1,VALID,1.40273,
2009-02-27, 03:30:04,VALID,1001.45,VALID,0,VALID,90.1276,VALID,0,VALID,24.7919,VALID,5,VALID,1.30117,
2009-02-27, 03:31:04,VALID,1001.46,VALID,0,VALID,90.2039,VALID,0,VALID,24.7724,VALID,2,VALID,1.5375,
2009-02-27, 03:32:04,VALID,1001.47,VALID,0,VALID,90.2649,VALID,0,VALID,24.7937,VALID,350,VALID,0.623438,
2009-02-27, 03:33:04,VALID,1001.49,VALID,0,VALID,90.3412,VALID,0,VALID,24.7743,VALID,9,VALID,1.08906,
2009-02-27, 03:34:04,VALID,1001.53,VALID,0,VALID,90.2649,VALID,0,VALID,24.7529,VALID,23,VALID,1.96953,
2009-02-27, 03:35:04,VALID,1001.56,VALID,0,VALID,90.2954,VALID,0,VALID,24.7743,VALID,350,VALID,0.775391,
2009-02-27, 03:36:04,VALID,1001.58,VALID,0,VALID,90.3107,VALID,0,VALID,24.7743,VALID,2,VALID,1.53203,
2009-02-27, 03:37:04,VALID,1001.59,VALID,0,VALID,90.3565,VALID,0,VALID,24.7548,VALID,360,VALID,1.18945,
2009-02-27, 03:38:04,VALID,1001.55,VALID,0,VALID,90.3946,VALID,0.100563,VALID,24.7353,VALID,28,VALID,1.59648,
2009-02-27, 03:39:04,VALID,1001.59,VALID,0,VALID,90.5319,VALID,0,VALID,24.714,VALID,315,VALID,0.691016,
2009-02-27, 03:40:04,VALID,1001.64,VALID,0,VALID,90.4938,VALID,0,VALID,24.7159,VALID,8,VALID,0.899219,
2009-02-27, 03:41:04,VALID,1001.65,VALID,0,VALID,90.4938,VALID,0,VALID,24.6945,VALID,347,VALID,1.16602,
2009-02-27, 03:42:04,VALID,1001.66,VALID,0,VALID,90.6235,VALID,0,VALID,24.6769,VALID,1,VALID,1.10977,
2009-02-27, 03:43:04,VALID,1001.66,VALID,0,VALID,90.654,VALID,0,VALID,24.6769,VALID,9,VALID,1.1918,
2009-02-27, 03:44:04,VALID,1001.7,VALID,0,VALID,90.7684,VALID,0,VALID,24.6556,VALID,2,VALID,1.84805,
2009-02-27, 03:45:04,VALID,1001.7,VALID,0,VALID,90.8676,VALID,0,VALID,24.638,VALID,13,VALID,1.23867,
2009-02-27, 03:46:04,VALID,1001.7,VALID,0,VALID,90.9591,VALID,0,VALID,24.638,VALID,356,VALID,0.753125,
2009-02-27, 03:47:04,VALID,1001.73,VALID,0,VALID,91.1117,VALID,0,VALID,24.6185,VALID,360,VALID,1.38086,
2009-02-27, 03:48:04,VALID,1001.72,VALID,0,VALID,91.2414,VALID,0,VALID,24.5796,VALID,325,VALID,0.635938,
2009-02-27, 03:49:04,VALID,1001.75,VALID,0,VALID,91.4245,VALID,0,VALID,24.5601,VALID,22,VALID,1.76641,